Regional Weather Roundup
Issued by NWS

Home | Current Version | Previous Version | Text Only | Print | Product List | Glossary On
Versions: 1 2 3 4 5 6 7 8 9 10 11 12 13 14 15 16 17 18 19 20 21 22 23 24 25 26 27 28 29 30 31 32 33 34 35 36 37 38 39 40 41 42 43 44 45 46 47 48 49 50
000
ASUS43 KBIS 271910
RWRND

NORTH DAKOTA REGIONAL WEATHER ROUNDUP
NATIONAL WEATHER SERVICE BISMARCK ND
200 PM CDT MON JUL 27 2015

NOTE: "FAIR" INDICATES FEW OR NO CLOUDS BELOW 12,000 FEET WITH NO
SIGNIFICANT WEATHER AND/OR OBSTRUCTIONS TO VISIBILITY.


NDZ001>003-009>011-017-272000-
NORTHWEST NORTH DAKOTA

CITY           SKY/WX    TMP DP  RH WIND       PRES   REMARKS
WILLISTON      SUNNY     90  57  32 SE17G23   29.68F
MINOT          SUNNY     87  64  46 E18G28    29.70F
MINOT AFB      SUNNY     86  69  56 SE21G32   29.69F
$$

NDZ018>021-031>035-040>046-272000-
SOUTHWEST NORTH DAKOTA

CITY           SKY/WX    TMP DP  RH WIND       PRES   REMARKS
BISMARCK       SUNNY     89  69  51 SE16G26   29.72F HX  93
DICKINSON      SUNNY     87  65  47 S20G26    29.69F
GARRISON         N/A     83  70  64 SE17      29.71F
HETTINGER ARPT SUNNY     87  65  47 SE14G28   29.73F
$$

NDZ004>008-012>016-024-026-027-054-272000-
NORTHEAST NORTH DAKOTA

CITY           SKY/WX    TMP DP  RH WIND       PRES   REMARKS
GRAND FORKS    PTSUNNY   86  70  58 S13       29.83F HX  90
GRND FRKS AFB  MOSUNNY   86  71  60 S16       29.83F HX  91
DEVILS LAKE    MOSUNNY   82  66  57 SE17      29.79F
$$

NDZ022-023-025-028>030-036>039-047>053-272000-
SOUTHEAST NORTH DAKOTA

CITY           SKY/WX    TMP DP  RH WIND       PRES   REMARKS
FARGO          PTSUNNY   85  70  60 S13       29.83F
JAMESTOWN      PTSUNNY   85  72  65 SE18G25   29.80F HX  91
$$



USA.gov is the U.S. government's official web portal to all federal, state and local government web resources and services.